Time,TemperatureF,DewpointF,PressureIn,WindDirection,WindDirectionDegrees,WindSpeedMPH,WindSpeedGustMPH,Humidity,HourlyPrecipIn,Conditions,Clouds,dailyrainin,SoftwareType,DateUTC
2013-01-24 00:09:00,8.2,-5.7,30.00,West,270,2.2,-999.0,52,-99.99,,,0.00,Acu-Link.com,2013-01-24 05:09:00,
2013-01-24 00:24:00,8.2,-5.0,30.00,West,270,3.7,-999.0,54,-99.99,,,0.00,Acu-Link.com,2013-01-24 05:24:00,
2013-01-24 00:39:00,8.2,-4.2,30.00,South,180,2.7,-999.0,56,-99.99,,,0.00,Acu-Link.com,2013-01-24 05:39:00,
2013-01-24 00:55:00,8.1,-4.3,29.99,SW,225,3.2,-999.0,56,-99.99,,,0.00,Acu-Link.com,2013-01-24 05:55:00,
2013-01-24 01:10:00,7.9,-4.1,29.99,ESE,112,2.7,-999.0,57,-99.99,,,0.00,Acu-Link.com,2013-01-24 06:10:00,
2013-01-24 01:25:00,7.9,-4.5,30.00,ESE,112,2.2,-999.0,56,-99.99,,,0.00,Acu-Link.com,2013-01-24 06:25:00,
2013-01-24 01:41:00,7.7,-4.7,30.00,ESE,112,2.7,-999.0,56,-99.99,,,0.00,Acu-Link.com,2013-01-24 06:41:00,
2013-01-24 01:56:00,7.7,-4.7,30.01,ESE,112,1.7,-999.0,56,-99.99,,,0.00,Acu-Link.com,2013-01-24 06:56:00,
2013-01-24 02:11:00,7.5,-5.2,30.01,SSW,202,1.7,-999.0,55,-99.99,,,0.00,Acu-Link.com,2013-01-24 07:11:00,
2013-01-24 02:27:00,7.3,-5.1,30.00,WNW,292,4.7,-999.0,56,-99.99,,,0.00,Acu-Link.com,2013-01-24 07:27:00,
2013-01-24 02:42:00,7.2,-5.9,30.00,NE,45,2.7,-999.0,54,-99.99,,,0.00,Acu-Link.com,2013-01-24 07:42:00,
2013-01-24 02:57:00,6.4,-7.8,30.01,ESE,112,3.2,-999.0,51,-99.99,,,0.00,Acu-Link.com,2013-01-24 07:57:00,
2013-01-24 03:12:00,6.6,-6.1,30.00,NW,315,4.2,-999.0,55,-99.99,,,0.00,Acu-Link.com,2013-01-24 08:12:00,
2013-01-24 03:28:00,6.4,-6.3,29.99,North,0,3.2,-999.0,55,-99.99,,,0.00,Acu-Link.com,2013-01-24 08:28:00,
2013-01-24 03:43:00,5.9,-7.5,29.99,NNW,337,1.7,-999.0,53,-99.99,,,0.00,Acu-Link.com,2013-01-24 08:43:00,
2013-01-24 03:58:00,6.1,-7.3,29.99,ESE,112,2.7,-999.0,53,-99.99,,,0.00,Acu-Link.com,2013-01-24 08:58:00,
2013-01-24 04:16:00,6.3,-6.4,29.98,NNE,22,3.7,-999.0,55,-99.99,,,0.00,Acu-Link.com,2013-01-24 09:16:00,
2013-01-24 04:31:00,5.9,-7.9,29.98,NW,315,5.3,-999.0,52,-99.99,,,0.00,Acu-Link.com,2013-01-24 09:31:00,
2013-01-24 04:46:00,5.9,-7.1,29.98,ESE,112,2.2,-999.0,54,-99.99,,,0.00,Acu-Link.com,2013-01-24 09:46:00,
2013-01-24 05:02:00,5.9,-7.1,29.98,NW,315,6.3,-999.0,54,-99.99,,,0.00,Acu-Link.com,2013-01-24 10:02:00,
2013-01-24 05:17:00,5.7,-7.7,29.98,SSE,157,3.7,-999.0,53,-99.99,,,0.00,Acu-Link.com,2013-01-24 10:17:00,
2013-01-24 05:32:00,5.4,-8.4,29.99,NW,315,4.2,-999.0,52,-99.99,,,0.00,Acu-Link.com,2013-01-24 10:32:00,
2013-01-24 05:47:00,5.4,-7.6,29.98,ESE,112,2.2,-999.0,54,-99.99,,,0.00,Acu-Link.com,2013-01-24 10:47:00,
2013-01-24 06:03:00,5.7,-6.6,29.99,WNW,292,2.7,-999.0,56,-99.99,,,0.00,Acu-Link.com,2013-01-24 11:03:00,
2013-01-24 06:18:00,5.4,-8.0,29.99,East,90,2.7,-999.0,53,-99.99,,,0.00,Acu-Link.com,2013-01-24 11:18:00,
2013-01-24 06:33:00,5.4,-7.2,29.99,WNW,292,4.7,-999.0,55,-99.99,,,0.00,Acu-Link.com,2013-01-24 11:33:00,
2013-01-24 06:48:00,5.4,-7.6,29.99,SE,135,3.7,-999.0,54,-99.99,,,0.00,Acu-Link.com,2013-01-24 11:48:00,
2013-01-24 07:03:00,5.4,-6.1,30.00,North,0,4.7,-999.0,58,-99.99,,,0.00,Acu-Link.com,2013-01-24 12:03:00,
2013-01-24 07:19:00,5.2,-6.7,30.00,ENE,67,2.2,-999.0,57,-99.99,,,0.00,Acu-Link.com,2013-01-24 12:19:00,
2013-01-24 07:34:00,5.2,-7.0,30.00,SW,225,1.7,-999.0,56,-99.99,,,0.00,Acu-Link.com,2013-01-24 12:34:00,
2013-01-24 07:49:00,5.5,-7.1,30.00,ESE,112,2.2,-999.0,55,-99.99,,,0.00,Acu-Link.com,2013-01-24 12:49:00,
2013-01-24 08:05:00,6.3,-6.4,30.01,South,180,3.7,-999.0,55,-99.99,,,0.00,Acu-Link.com,2013-01-24 13:05:00,
2013-01-24 08:20:00,6.6,-7.2,30.00,NW,315,3.7,-999.0,52,-99.99,,,0.00,Acu-Link.com,2013-01-24 13:20:00,
2013-01-24 08:35:00,7.2,-7.1,30.00,SE,135,1.7,-999.0,51,-99.99,,,0.00,Acu-Link.com,2013-01-24 13:35:00,
2013-01-24 08:51:00,8.4,-6.8,30.01,West,270,2.7,-999.0,49,-99.99,,,0.00,Acu-Link.com,2013-01-24 13:51:00,
2013-01-24 09:06:00,9.7,-6.0,30.01,WSW,247,2.7,-999.0,48,-99.99,,,0.00,Acu-Link.com,2013-01-24 14:06:00,
2013-01-24 09:21:00,11.3,-5.4,30.00,SSE,157,2.7,-999.0,46,-99.99,,,0.00,Acu-Link.com,2013-01-24 14:21:00,
2013-01-24 09:37:00,11.7,-5.5,30.01,West,270,3.2,-999.0,45,-99.99,,,0.00,Acu-Link.com,2013-01-24 14:37:00,
2013-01-24 09:52:00,14.0,-3.4,30.00,West,270,3.2,-999.0,45,-99.99,,,0.00,Acu-Link.com,2013-01-24 14:52:00,
2013-01-24 10:07:00,14.0,-4.3,30.00,SSE,157,2.2,-999.0,43,-99.99,,,0.00,Acu-Link.com,2013-01-24 15:07:00,
2013-01-24 10:23:00,14.7,-3.7,30.00,East,90,2.7,-999.0,43,-99.99,,,0.00,Acu-Link.com,2013-01-24 15:23:00,
2013-01-24 10:38:00,15.6,-3.4,29.99,WSW,247,3.7,-999.0,42,-99.99,,,0.00,Acu-Link.com,2013-01-24 15:38:00,
2013-01-24 10:53:00,16.7,-1.9,29.99,SSE,157,2.7,-999.0,43,-99.99,,,0.00,Acu-Link.com,2013-01-24 15:53:00,
2013-01-24 11:08:00,17.2,-2.4,29.98,WNW,292,3.7,-999.0,41,-99.99,,,0.00,Acu-Link.com,2013-01-24 16:08:00,
2013-01-24 11:24:00,18.9,-0.9,29.98,South,180,2.7,-999.0,41,-99.99,,,0.00,Acu-Link.com,2013-01-24 16:24:00,
2013-01-24 11:39:00,19.0,-2.4,29.97,SW,225,1.7,-999.0,38,-99.99,,,0.00,Acu-Link.com,2013-01-24 16:39:00,
2013-01-24 11:54:00,20.8,-0.2,29.97,West,270,5.8,-999.0,39,-99.99,,,0.00,Acu-Link.com,2013-01-24 16:54:00,
2013-01-24 12:10:00,19.8,-1.7,29.96,East,90,4.2,-999.0,38,-99.99,,,0.00,Acu-Link.com,2013-01-24 17:10:00,
2013-01-24 12:25:00,21.2,-0.4,29.95,West,270,3.7,-999.0,38,-99.99,,,0.00,Acu-Link.com,2013-01-24 17:25:00,
2013-01-24 12:40:00,21.4,-0.2,29.95,NNW,337,3.7,-999.0,38,-99.99,,,0.00,Acu-Link.com,2013-01-24 17:40:00,
2013-01-24 12:56:00,22.1,0.4,29.95,NW,315,5.8,-999.0,38,-99.99,,,0.00,Acu-Link.com,2013-01-24 17:56:00,
2013-01-24 13:11:00,21.9,-2.1,29.94,NNE,22,4.2,-999.0,34,-99.99,,,0.00,Acu-Link.com,2013-01-24 18:11:00,
2013-01-24 13:26:00,22.8,-1.3,29.94,WNW,292,2.2,-999.0,34,-99.99,,,0.00,Acu-Link.com,2013-01-24 18:26:00,
2013-01-24 13:41:00,22.8,-0.1,29.93,NW,315,5.8,-999.0,36,-99.99,,,0.00,Acu-Link.com,2013-01-24 18:41:00,
2013-01-24 13:57:00,22.6,-0.9,29.93,East,90,5.3,-999.0,35,-99.99,,,0.00,Acu-Link.com,2013-01-24 18:57:00,
2013-01-24 14:12:00,23.0,-1.8,29.94,West,270,2.7,-999.0,33,-99.99,,,0.00,Acu-Link.com,2013-01-24 19:12:00,
2013-01-24 14:27:00,22.3,-1.1,29.94,WNW,292,5.3,-999.0,35,-99.99,,,0.00,Acu-Link.com,2013-01-24 19:27:00,
2013-01-24 14:43:00,22.5,-2.9,29.94,ESE,112,2.7,-999.0,32,-99.99,,,0.00,Acu-Link.com,2013-01-24 19:43:00,
2013-01-24 14:58:00,23.4,0.4,29.94,SE,135,4.2,-999.0,36,-99.99,,,0.00,Acu-Link.com,2013-01-24 19:58:00,
2013-01-24 15:13:00,23.0,-1.8,29.93,WNW,292,7.8,-999.0,33,-99.99,,,0.00,Acu-Link.com,2013-01-24 20:13:00,
2013-01-24 15:29:00,22.5,-1.6,29.94,ESE,112,5.3,-999.0,34,-99.99,,,0.00,Acu-Link.com,2013-01-24 20:29:00,
2013-01-24 15:44:00,22.3,-3.0,29.95,ENE,67,2.7,-999.0,32,-99.99,,,0.00,Acu-Link.com,2013-01-24 20:44:00,
2013-01-24 15:59:00,21.7,-1.1,29.96,West,270,4.7,-999.0,36,-99.99,,,0.00,Acu-Link.com,2013-01-24 20:59:00,
2013-01-24 16:14:00,20.5,-3.4,29.96,WSW,247,4.7,-999.0,34,-99.99,,,0.00,Acu-Link.com,2013-01-24 21:14:00,
2013-01-24 16:30:00,19.6,-4.2,29.96,SSW,202,3.2,-999.0,34,-99.99,,,0.00,Acu-Link.com,2013-01-24 21:30:00,
2013-01-24 16:45:00,19.2,-1.1,29.97,ESE,112,3.2,-999.0,40,-99.99,,,0.00,Acu-Link.com,2013-01-24 21:45:00,
2013-01-24 17:00:00,18.9,-1.4,29.97,NNE,22,4.2,-999.0,40,-99.99,,,0.00,Acu-Link.com,2013-01-24 22:00:00,
2013-01-24 17:15:00,18.7,-4.4,29.98,South,180,4.7,-999.0,35,-99.99,,,0.00,Acu-Link.com,2013-01-24 22:15:00,
2013-01-24 17:31:00,18.3,-2.5,29.99,SW,225,3.2,-999.0,39,-99.99,,,0.00,Acu-Link.com,2013-01-24 22:31:00,
2013-01-24 17:46:00,17.8,-2.9,30.00,WSW,247,2.7,-999.0,39,-99.99,,,0.00,Acu-Link.com,2013-01-24 22:46:00,
2013-01-24 18:01:00,17.6,-2.6,30.00,ESE,112,3.2,-999.0,40,-99.99,,,0.00,Acu-Link.com,2013-01-24 23:01:00,
2013-01-24 18:17:00,17.4,-3.8,30.00,WNW,292,2.2,-999.0,38,-99.99,,,0.00,Acu-Link.com,2013-01-24 23:17:00,
2013-01-24 18:32:00,17.2,-1.9,30.00,East,90,2.2,-999.0,42,-99.99,,,0.00,Acu-Link.com,2013-01-24 23:32:00,
2013-01-24 18:47:00,16.7,-2.9,30.01,SSW,202,1.7,-999.0,41,-99.99,,,0.00,Acu-Link.com,2013-01-24 23:47:00,
2013-01-24 19:03:00,16.7,-0.9,30.02,SE,135,1.7,-999.0,45,-99.99,,,0.00,Acu-Link.com,2013-01-25 00:03:00,
2013-01-24 19:18:00,16.5,-1.6,30.02,West,270,1.7,-999.0,44,-99.99,,,0.00,Acu-Link.com,2013-01-25 00:18:00,
2013-01-24 19:33:00,16.5,-0.6,30.02,WNW,292,4.2,-999.0,46,-99.99,,,0.00,Acu-Link.com,2013-01-25 00:33:00,
2013-01-24 19:49:00,16.3,-0.8,30.02,ESE,112,6.3,-999.0,46,-99.99,,,0.00,Acu-Link.com,2013-01-25 00:49:00,
2013-01-24 20:04:00,16.0,-1.5,30.03,East,90,4.7,-999.0,45,-99.99,,,0.00,Acu-Link.com,2013-01-25 01:04:00,
2013-01-24 20:19:00,15.8,-1.3,30.03,WNW,292,2.7,-999.0,46,-99.99,,,0.00,Acu-Link.com,2013-01-25 01:19:00,
2013-01-24 20:34:00,15.3,-2.2,30.04,SSE,157,2.2,-999.0,45,-99.99,,,0.00,Acu-Link.com,2013-01-25 01:34:00,
2013-01-24 20:50:00,15.1,-2.4,30.05,ESE,112,2.2,-999.0,45,-99.99,,,0.00,Acu-Link.com,2013-01-25 01:50:00,
2013-01-24 21:05:00,14.7,-2.3,30.05,West,270,2.7,-999.0,46,-99.99,,,0.00,Acu-Link.com,2013-01-25 02:05:00,
2013-01-24 21:20:00,14.5,-2.9,30.06,NNE,22,3.2,-999.0,45,-99.99,,,0.00,Acu-Link.com,2013-01-25 02:20:00,
2013-01-24 21:36:00,14.4,-3.0,30.06,WNW,292,4.7,-999.0,45,-99.99,,,0.00,Acu-Link.com,2013-01-25 02:36:00,
2013-01-24 21:51:00,14.0,-3.9,30.06,WNW,292,3.2,-999.0,44,-99.99,,,0.00,Acu-Link.com,2013-01-25 02:51:00,
2013-01-24 22:06:00,14.0,-3.4,30.06,West,270,7.3,-999.0,45,-99.99,,,0.00,Acu-Link.com,2013-01-25 03:06:00,
2013-01-24 22:22:00,13.8,-4.0,30.06,SSW,202,2.7,-999.0,44,-99.99,,,0.00,Acu-Link.com,2013-01-25 03:22:00,
2013-01-24 22:37:00,13.8,-3.6,30.06,ESE,112,4.7,-999.0,45,-99.99,,,0.00,Acu-Link.com,2013-01-25 03:37:00,
2013-01-24 22:52:00,13.6,-4.2,30.08,NW,315,2.7,-999.0,44,-99.99,,,0.00,Acu-Link.com,2013-01-25 03:52:00,
2013-01-24 23:07:00,13.5,-4.3,30.07,ESE,112,2.2,-999.0,44,-99.99,,,0.00,Acu-Link.com,2013-01-25 04:07:00,
2013-01-24 23:23:00,13.3,-5.0,30.08,ESE,112,5.3,-999.0,43,-99.99,,,0.00,Acu-Link.com,2013-01-25 04:23:00,
2013-01-24 23:38:00,12.9,-6.3,30.08,NW,315,4.7,-999.0,41,-99.99,,,0.00,Acu-Link.com,2013-01-25 04:38:00,
2013-01-24 23:53:00,12.9,-4.4,30.08,West,270,3.7,-999.0,45,-99.99,,,0.00,Acu-Link.com,2013-01-25 04:53:00,